Charter Quote
Worldwide +44-20-3874-8091 Call
Select Language Lang
SAFETY RELIABILITY EXPERIENCE

Piacenza Airport (LIMS) - Jet Charter Services

AIRPORT INFORMATION
ICAOLIMS
IATAQPZ
LOCATIONPiacenza, Italy
FACILITY TYPEAIRPORT
Runway Length (ft) Width (ft) Surface Type Elevation (ft)
30/12 9828 148 ASP 455.70492

At Paramount Business Jets you can hire chartered private jets to and from Piacenza Airport with as little as 4 hours of notice. All flights booked via Paramount Business Jets are operated by certified direct air carriers that meet and exceed the FAA part 135 and 121 protocol or a foreign equivalent safety authority. Furthermore, Paramount Business Jets subscribes to ARGUS for their third party safety checks of operators, aircraft, and crews prior each and every flight to and from Piacenza Airport and worldwide.

  • Quote a trip using Piacenza Airport or call us 24/7 - 365 days a year at +44-20-3874-8091.
Questions? Call +44-20-3874-8091

METAR Weather Data at Piacenza Airport, LIMS, QPZ

STATIONLIMS
OBSERVEDSun Mar 24, 09:55 UTC
NOWSun Mar 24, 11:03 UTC
AGE68 min ago
WINDNNE at 5 mph
VISIBILITYgreater than 7 miles
CLOUDSclear skies
TEMP68°F (20°C)
DEWPT39°F (4°C)
HUMIDITY35%
BAROMETER1022 hPa (30.18 in Hg)
METARLIMS 240955Z 03004KT CAVOK 20/04 Q1022

Call us on +44-20-3874-8091 (24 Hours) to Hire a Private Jet or Get a Quick Quote.

Find Airports Near any Location

Processing
...